This is the latest recevied weather packets stored in our database for station/object W7TRD. If no packets are shown the sender has not sent any weather packets the latest 10 day(s).
| Time | Temp. | Humidity | Pressure | Rain* | Wind** | Luminosity | Snow |
|---|---|---|---|---|---|---|---|
| 1776957966 | 9.44° C | 87% | 1025.1 hPa | 0 mm | - | 80 W/m² | - |
| 1776957661 | 9.44° C | 87% | 1025.2 hPa | 0 mm | - | 77 W/m² | - |
| 1776957356 | 9.44° C | 87% | 1025.2 hPa | 0 mm | - | 74 W/m² | - |
| 1776957051 | 9.44° C | 88% | 1025.1 hPa | 0 mm | - | 73 W/m² | - |
| 1776956750 | 8.89° C | 88% | 1025.1 hPa | 0 mm | - | 67 W/m² | - |
| 1776956450 | 8.89° C | 89% | 1025 hPa | 0 mm | - | 63 W/m² | - |
| 1776956145 | 8.89° C | 89% | 1025.2 hPa | 0 mm | - | 61 W/m² | - |
| 1776955841 | 8.89° C | 89% | 1025.1 hPa | 0 mm | - | 53 W/m² | - |
| 1776955537 | 8.89° C | 89% | 1025 hPa | 0 mm | - | 46 W/m² | - |
| 1776955233 | 8.89° C | 89% | 1024.9 hPa | 0 mm | - | 39 W/m² | - |
| 1776954929 | 8.89° C | 90% | 1025 hPa | 0 mm | - | 33 W/m² | - |
| 1776954626 | 8.33° C | 90% | 1025 hPa | 0 mm | - | 26 W/m² | - |
| 1776954325 | 8.33° C | 90% | 1024.9 hPa | 0 mm | - | 23 W/m² | - |
| 1776954020 | 8.33° C | 90% | 1024.8 hPa | 0 mm | - | 19 W/m² | - |
| 1776953715 | 8.33° C | 90% | 1025 hPa | 0 mm | - | 16 W/m² | - |
| 1776953415 | 8.33° C | 91% | 1024.8 hPa | 0 mm | - | 15 W/m² | - |
| 1776953115 | 8.33° C | 91% | 1025 hPa | 0 mm | - | 13 W/m² | - |
| 1776952810 | 8.33° C | 91% | 1024.7 hPa | 0 mm | - | 12 W/m² | - |
| 1776952508 | 8.33° C | 91% | 1024.8 hPa | 0 mm | - | 9 W/m² | - |
| 1776952204 | 8.33° C | 91% | 1024.7 hPa | 0 mm | - | 8 W/m² | - |
| 1776951901 | 8.33° C | 91% | 1024.8 hPa | 0 mm | - | 8 W/m² | - |
| 1776951597 | 8.33° C | 91% | 1024.6 hPa | 0 mm | - | 6 W/m² | - |
| 1776951294 | 8.33° C | 91% | 1024.7 hPa | 0 mm | - | 4 W/m² | - |
| 1776950990 | 8.33° C | 91% | 1024.6 hPa | 0 mm | - | 3 W/m² | - |
| 1776950686 | 8.33° C | 91% | 1024.7 hPa | 0 mm | - | 2 W/m² | - |
* Rain latest hour (hover to see other rain measurements)
** Current wind speed in m/s (hover to see current wind gust speed)